DW7718 North Shields UK current weather conditions

sailwx.info

Wind from 212

Air temperature 13.9° C
Dewpoint 13.6° C

Last reported at 2019-Sep-23 03:01 UTC.
Time now 2019-Sep-23 03:26 UTC

Location: N 55°02' W 001°27'.
View on Google Maps.

See reports from other nearby stations

  
Tides and Currents Weather Stations Pressure Air Temp Water Temp Dewpoint Dewpoint Depression Visibility Wind Speed Wind Dir Waves Ship Positions
date/time (UTC)wind fromknots sea level pressurealtimeterstation pressurevisibilityair tempwater tempwave heightnotes
2019-Sep-23 03:01 212 13.9
2019-Sep-23 02:45 267 0 gusting 3 13.9
2019-Sep-23 02:30 297 14.4
2019-Sep-23 02:15 270 0 gusting 3 14.4
2019-Sep-23 02:01 229 0 gusting 5 14.4
2019-Sep-23 01:46 252 15.0
2019-Sep-23 01:31 201 15.0
2019-Sep-23 01:15 289 15.0
2019-Sep-23 01:00 165 15.6
2019-Sep-23 00:45 232 15.0
2019-Sep-23 00:30 232 15.6
2019-Sep-23 00:15 232 15.6
2019-Sep-23 00:00 271 15.6
2019-Sep-22 23:45 253 15.6
2019-Sep-22 23:30 245 15.6
2019-Sep-22 23:15 297 15.6
2019-Sep-22 23:00 263 15.6
2019-Sep-22 22:45 321 15.6
2019-Sep-22 22:33 260 15.6
2019-Sep-22 22:16 146 15.6
2019-Sep-22 22:01 260 15.0
2019-Sep-22 21:47 125 15.0
2019-Sep-22 21:32 210 15.0
2019-Sep-22 21:16 210 15.0
2019-Sep-22 21:02 265 15.0
2019-Sep-22 20:47 183 15.0
2019-Sep-22 20:32 183 15.0
2019-Sep-22 20:16 183 15.0
2019-Sep-22 20:01 183 15.0
2019-Sep-22 19:46 183 14.4
2019-Sep-22 19:32 183 14.4
2019-Sep-22 19:16 183 14.4
2019-Sep-22 19:01 150 14.4
2019-Sep-22 18:46 150 13.9
2019-Sep-22 18:31 150 14.4
2019-Sep-22 18:16 151 14.4
2019-Sep-22 18:01 151 14.4
2019-Sep-22 17:46 148 14.4
2019-Sep-22 17:30 148 15.0
2019-Sep-22 17:16 150 15.0
2019-Sep-22 17:01 150 15.0
2019-Sep-22 16:46 160 15.0
2019-Sep-22 16:31 169 15.0
2019-Sep-22 16:16 115 15.0
2019-Sep-22 16:01 148 15.0
2019-Sep-22 15:46 098 15.6
2019-Sep-22 15:31 148 15.6
2019-Sep-22 15:16 132 16.1
2019-Sep-22 15:01 138 16.1
2019-Sep-22 14:45 108 16.7
2019-Sep-22 14:31 124 16.7
2019-Sep-22 14:15 139 0 gusting 3 16.7
2019-Sep-22 14:00 153 16.1
2019-Sep-22 13:45 057 16.1
2019-Sep-22 13:30 187 16.1
2019-Sep-22 13:16 247 16.1
2019-Sep-22 13:01 259 16.1
2019-Sep-22 12:45 215 16.7
2019-Sep-22 12:30 214 16.7
2019-Sep-22 12:16 222 17.2
2019-Sep-22 12:01 198 17.2
2019-Sep-22 11:45 195 18.3
2019-Sep-22 11:30 194 18.3
2019-Sep-22 11:15 201 17.8
2019-Sep-22 11:00 217 17.8
2019-Sep-22 10:45 225 17.2
2019-Sep-22 10:30 228 17.8
2019-Sep-22 10:15 121 18.9
2019-Sep-22 10:00 121 17.2
2019-Sep-22 09:47 200 16.7
2019-Sep-22 09:31 141 16.7
2019-Sep-22 09:19 191 16.1
2019-Sep-22 09:01 142 15.6
2019-Sep-22 08:46 139 15.6
2019-Sep-22 08:31 134 14.4
2019-Sep-22 08:16 179 14.4
2019-Sep-22 08:01 179 13.9
2019-Sep-22 07:46 179 13.9
2019-Sep-22 07:32 179 12.2
2019-Sep-22 07:15 179 11.7
2019-Sep-22 07:00 179 11.1
2019-Sep-22 06:46 179 10.6
2019-Sep-22 06:31 179 10.6
2019-Sep-22 06:16 179 10.6
2019-Sep-22 06:01 179 10.6
2019-Sep-22 05:46 179 10.6
2019-Sep-22 05:31 179 9.4
2019-Sep-22 05:16 178 9.4
2019-Sep-22 05:01 179 9.4
2019-Sep-22 04:46 178 9.4
2019-Sep-22 04:31 179 8.9
2019-Sep-22 04:15 179 8.9
2019-Sep-22 04:00 179 8.9
2019-Sep-22 03:45 178 8.9
2019-Sep-22 03:31 178 8.9
2019-Sep-22 03:15 179 8.9
2019-Sep-22 03:00 179 8.9
2019-Sep-22 02:45 179 9.4
2019-Sep-22 02:30 179 9.4
2019-Sep-22 02:15 179 10.0
2019-Sep-22 02:02 179 10.6
2019-Sep-22 01:46 179 11.1
2019-Sep-22 01:31 141 11.7
2019-Sep-22 01:16 163 11.1
2019-Sep-22 01:01 139 11.1
2019-Sep-22 00:46 139 11.1
2019-Sep-22 00:32 139 11.1
2019-Sep-22 00:16 139 11.1
2019-Sep-22 00:02 139 11.7
2019-Sep-21 23:46 139 11.7
2019-Sep-21 23:31 141 11.7
2019-Sep-21 23:16 207 12.2
2019-Sep-21 23:01 203 12.2
2019-Sep-21 22:45 194 12.2
2019-Sep-21 22:31 120 12.2
2019-Sep-21 22:16 190 12.8
2019-Sep-21 22:00 158 12.8
2019-Sep-21 21:45 209 0 gusting 5 12.8
2019-Sep-21 21:31 211 1 gusting 4 12.8
2019-Sep-21 21:15 030 12.8
2019-Sep-21 21:00 210 1 gusting 6 12.8
2019-Sep-21 20:46 098 1 gusting 6 13.3
2019-Sep-21 20:30 185 1 gusting 6 13.3
2019-Sep-21 20:15 166 1 gusting 6 13.3
2019-Sep-21 20:01 194 2 13.3
2019-Sep-21 19:46 138 2 gusting 6 13.3
2019-Sep-21 19:30 169 1 gusting 6 13.3
2019-Sep-21 19:15 187 2 gusting 8 13.3
2019-Sep-21 19:00 143 3 gusting 6 13.3
2019-Sep-21 18:45 186 3 gusting 7 13.3
2019-Sep-21 18:30 138 2 gusting 7 13.9
2019-Sep-21 18:15 151 2 gusting 8 13.9
2019-Sep-21 18:00 136 3 gusting 6 13.9
2019-Sep-21 17:45 172 2 gusting 7 14.4
2019-Sep-21 17:30 146 2 gusting 10 15.0
2019-Sep-21 17:15 155 4 gusting 7 15.6
2019-Sep-21 17:00 174 1 gusting 8 15.6
2019-Sep-21 16:45 132 2 gusting 8 16.1
2019-Sep-21 16:30 136 1 gusting 10 16.1
2019-Sep-21 16:16 172 2 gusting 12 16.7
2019-Sep-21 16:01 167 2 gusting 11 16.7
2019-Sep-21 15:46 218 1 gusting 7 16.7
2019-Sep-21 15:31 129 2 gusting 7 16.7
2019-Sep-21 15:17 162 2 gusting 7 17.2
2019-Sep-21 15:01 153 3 gusting 8 17.2
2019-Sep-21 14:46 141 3 gusting 9 17.2
2019-Sep-21 14:31 219 2 gusting 10 17.2
2019-Sep-21 14:16 163 3 gusting 7 17.2
2019-Sep-21 14:01 108 2 gusting 13 17.2
2019-Sep-21 13:46 214 1 gusting 7 17.2
2019-Sep-21 13:31 226 4 gusting 9 17.2
2019-Sep-21 13:16 129 3 gusting 7 17.2
2019-Sep-21 13:01 146 2 gusting 7 17.2
2019-Sep-21 12:46 156 2 gusting 7 17.2
2019-Sep-21 12:31 131 1 gusting 8 17.2
2019-Sep-21 12:17 066 2 gusting 8 17.2
2019-Sep-21 12:00 155 1 gusting 6 16.7
2019-Sep-21 11:45 200 3 gusting 7 16.7
2019-Sep-21 11:31 129 2 gusting 10 16.7
2019-Sep-21 11:15 205 2 gusting 6 16.7
2019-Sep-21 11:00 100 1 gusting 5 16.7
2019-Sep-21 10:45 100 0 gusting 5 16.7
2019-Sep-21 10:30 102 0 gusting 5 16.1
2019-Sep-21 10:15 105 2 gusting 6 15.6
2019-Sep-21 10:00 105 1 gusting 6 15.6
2019-Sep-21 09:45 146 2 gusting 6 15.6
2019-Sep-21 09:30 228 1 gusting 7 15.6
2019-Sep-21 09:15 245 1 gusting 7 15.0
2019-Sep-21 09:00 104 0 gusting 8 15.0
2019-Sep-21 08:45 201 1 gusting 7 15.0
2019-Sep-21 08:30 190 0 gusting 4 14.4
2019-Sep-21 08:17 151 0 gusting 5 13.9
2019-Sep-21 08:02 208 2 gusting 6 13.9
2019-Sep-21 07:46 134 1 gusting 5 13.3
2019-Sep-21 07:31 208 1 gusting 6 13.3
2019-Sep-21 07:16 231 0 gusting 6 13.3
2019-Sep-21 07:01 113 1 gusting 6 12.8
2019-Sep-21 06:47 143 0 gusting 6 12.8
2019-Sep-21 06:32 200 2 gusting 6 12.8
2019-Sep-21 06:16 183 2 gusting 6 12.8
2019-Sep-21 06:02 139 1 gusting 5 12.2
2019-Sep-21 05:46 184 0 gusting 6 12.2
2019-Sep-21 05:31 088 0 gusting 5 12.2
2019-Sep-21 05:16 193 1 gusting 4 12.2
2019-Sep-21 05:01 253 0 gusting 4 12.2
2019-Sep-21 04:46 159 0 gusting 3 12.2
2019-Sep-21 04:31 166 0 gusting 4 12.2
2019-Sep-21 04:16 222 1 gusting 5 11.7
2019-Sep-21 04:01 114 1 gusting 4 11.7
2019-Sep-21 03:45 207 1 gusting 4 11.7
2019-Sep-21 03:15 180 0 gusting 2 11.7
2019-Sep-21 03:01 210 11.7